| time (UTC) | temp F | wind direction | speed MPH | gust MPH | rain 1hr in | rain 24hr in | rain mn in | humidity % | barometer mb |
| 20260901044020 | 58 | 144 | 3.0 | 3.0 | 0.00 | 0.00 | 0.00 | 58 | 1010.4 |
| 20260901043516 | 59 | 131 | 3.0 | 3.0 | 0.00 | 0.00 | 0.00 | 58 | 1010.3 |
| 20260901043011 | 61 | 193 | 3.0 | 3.0 | 0.00 | 0.00 | 0.00 | 56 | 1010.4 |
| 20260901042511 | 63 | 179 | 5.0 | 6.0 | 0.00 | 0.00 | 0.00 | 53 | 1010.5 |
| 20260901042006 | 65 | 140 | 7.0 | 9.0 | 0.00 | 0.00 | 0.00 | 47 | 1010.1 |
| 20260901041501 | 64 | 115 | 7.0 | 7.0 | 0.00 | 0.00 | 0.00 | 47 | 1010.3 |
| 20260901040955 | 64 | 106 | 6.0 | 7.0 | 0.00 | 0.00 | 0.00 | 47 | 1010.0 |
| 20260901040450 | 64 | 121 | 5.0 | 5.0 | 0.00 | 0.00 | 0.00 | 48 | 1009.9 |
| 20260901035949 | 64 | 112 | 4.0 | 5.0 | 0.00 | 0.00 | 0.00 | 48 | 1010.0 |
| 20260901035448 | 64 | 121 | 5.0 | 6.0 | 0.00 | 0.00 | 0.00 | 48 | 1010.0 |
| 20260901034946 | 64 | 100 | 6.0 | 7.0 | 0.00 | 0.00 | 0.00 | 48 | 1009.9 |
| 20260901034441 | 64 | 105 | 3.0 | 3.0 | 0.00 | 0.00 | 0.00 | 50 | 1010.0 |
| 20260901033936 | 64 | 115 | 5.0 | 6.0 | 0.00 | 0.00 | 0.00 | 49 | 1010.0 |
| 20260901033435 | 64 | 116 | 5.0 | 6.0 | 0.00 | 0.00 | 0.00 | 49 | 1010.0 |
| 20260901032933 | 64 | 95 | 4.0 | 5.0 | 0.00 | 0.00 | 0.00 | 49 | 1009.9 |
| 20260901032428 | 65 | 118 | 4.0 | 5.0 | 0.00 | 0.00 | 0.00 | 49 | 1009.8 |
| 20260901031923 | 65 | 111 | 5.0 | 8.0 | 0.00 | 0.00 | 0.00 | 48 | 1009.8 |
| 20260901031419 | 65 | 106 | 6.0 | 8.0 | 0.00 | 0.00 | 0.00 | 47 | 1010.0 |
| 20260901030918 | 65 | 112 | 6.0 | 7.0 | 0.00 | 0.00 | 0.00 | 47 | 1009.9 |
| 20260901030414 | 65 | 108 | 5.0 | 6.0 | 0.00 | 0.00 | 0.00 | 48 | 1009.6 |
| 20260901025912 | 66 | 92 | 5.0 | 6.0 | 0.00 | 0.00 | 0.00 | 48 | 1009.5 |
| 20260901025408 | 65 | 96 | 6.0 | 7.0 | 0.00 | 0.00 | 0.00 | 47 | 1009.4 |
| 20260901024857 | 66 | 101 | 3.0 | 3.0 | 0.00 | 0.00 | 0.00 | 47 | 1009.4 |
| 20260901024356 | 66 | 100 | 4.0 | 6.0 | 0.00 | 0.00 | 0.00 | 46 | 1009.6 |
| 20260901023854 | 66 | 87 | 3.0 | 3.0 | 0.00 | 0.00 | 0.00 | 48 | 1009.4 |
| 20260901023350 | 67 | 104 | 5.0 | 6.0 | 0.00 | 0.00 | 0.00 | 46 | 1009.5 |
| 20260901022844 | 68 | 106 | 3.0 | 3.0 | 0.00 | 0.00 | 0.00 | 46 | 1009.4 |
| 20260901022340 | 68 | 102 | 5.0 | 6.0 | 0.00 | 0.00 | 0.00 | 42 | 1009.3 |
| 20260901021836 | 67 | 99 | 3.0 | 3.0 | 0.00 | 0.00 | 0.00 | 47 | 1009.1 |
| 20260901021331 | 68 | 92 | 3.0 | 5.0 | 0.00 | 0.00 | 0.00 | 45 | 1009.4 |
| 20260901020826 | 69 | 84 | 3.0 | 3.0 | 0.00 | 0.00 | 0.00 | 44 | 1009.2 |
| 20260901020321 | 70 | 80 | 3.0 | 3.0 | 0.00 | 0.00 | 0.00 | 43 | 1009.5 |
| 20260901015815 | 71 | 104 | 3.0 | 3.0 | 0.00 | 0.00 | 0.00 | 40 | 1009.8 |
| 20260901015312 | 71 | 116 | 2.0 | 2.0 | 0.00 | 0.00 | 0.00 | 41 | 1009.8 |
| 20260901014811 | 72 | 117 | 2.0 | 2.0 | 0.00 | 0.00 | 0.00 | 39 | 1009.3 |
| 20260901014307 | 73 | 125 | 1.0 | 1.0 | 0.00 | 0.00 | 0.00 | 41 | 1009.5 |
| 20260901013802 | 73 | 119 | 1.0 | 1.0 | 0.00 | 0.00 | 0.00 | 38 | 1009.6 |
| 20260901013258 | 73 | 115 | 2.0 | 2.0 | 0.00 | 0.00 | 0.00 | 37 | 1009.6 |
| 20260901012753 | 74 | 118 | 1.0 | 1.0 | 0.00 | 0.00 | 0.00 | 37 | 1009.6 |
| 20260901012253 | 74 | 127 | 1.0 | 1.0 | 0.00 | 0.00 | 0.00 | 37 | 1009.6 |
| 20260901011749 | 74 | 121 | 1.0 | 2.0 | 0.00 | 0.00 | 0.00 | 35 | 1009.5 |
| 20260901011244 | 74 | 132 | 2.0 | 2.0 | 0.00 | 0.00 | 0.00 | 35 | 1009.8 |
| 20260901010738 | 74 | 127 | 1.0 | 2.0 | 0.00 | 0.00 | 0.00 | 36 | 1009.8 |
| 20260901010233 | 74 | 144 | 2.0 | 2.0 | 0.00 | 0.00 | 0.00 | 36 | 1009.6 |
| 20260901005731 | 74 | 117 | 3.0 | 3.0 | 0.00 | 0.00 | 0.00 | 36 | 1009.5 |
| 20260901005227 | 75 | 126 | 3.0 | 3.0 | 0.00 | 0.00 | 0.00 | 34 | 1009.8 |
| 20260901004727 | 75 | 134 | 2.0 | 2.0 | 0.00 | 0.00 | 0.00 | 35 | 1009.8 |
| 20260901004221 | 76 | 137 | 0.0 | 0.0 | 0.00 | 0.00 | 0.00 | 34 | 1010.0 |
| 20260901003715 | 76 | 138 | 0.0 | 0.0 | 0.00 | 0.00 | 0.00 | 32 | 1010.0 |
| 20260901003210 | 76 | 139 | 0.0 | 0.0 | 0.00 | 0.00 | 0.00 | 32 | 1010.1 |
| 20260901002709 | 76 | 224 | 3.0 | 3.0 | 0.00 | 0.00 | 0.00 | 33 | 1010.1 |
| 20260901002204 | 76 | 294 | 4.0 | 5.0 | 0.00 | 0.00 | 0.00 | 33 | 1010.1 |
| 20260901001700 | 76 | 265 | 4.0 | 5.0 | 0.00 | 0.00 | 0.00 | 32 | 1009.9 |
| 20260901001154 | 75 | 171 | 2.0 | 2.0 | 0.00 | 0.00 | 0.00 | 35 | 1010.1 |
| 20260901000650 | 75 | 201 | 4.0 | 6.0 | 0.00 | 0.00 | 0.00 | 34 | 1010.2 |
| 20260901000145 | 75 | 176 | 1.0 | 2.0 | 0.00 | 0.00 | 0.00 | 34 | 1010.2 |
| 20260831235644 | 76 | 242 | 7.0 | 7.0 | 0.00 | 0.00 | 0.00 | 33 | 1010.0 |
| 20260831235140 | 76 | 206 | 4.0 | 5.0 | 0.00 | 0.00 | 0.00 | 34 | 1010.3 |
| 20260831234639 | 76 | 182 | 4.0 | 5.0 | 0.00 | 0.00 | 0.00 | 34 | 1010.0 |
| 20260831234135 | 76 | 147 | 1.0 | 1.0 | 0.00 | 0.00 | 0.00 | 36 | 1010.1 |
| 20260831233630 | 76 | 222 | 4.0 | 5.0 | 0.00 | 0.00 | 0.00 | 34 | 1009.9 |
| 20260831233126 | 76 | 182 | 2.0 | 2.0 | 0.00 | 0.00 | 0.00 | 33 | 1010.3 |
| 20260831232620 | 76 | 255 | 4.0 | 6.0 | 0.00 | 0.00 | 0.00 | 33 | 1010.3 |
| 20260831232116 | 75 | 170 | 2.0 | 2.0 | 0.00 | 0.00 | 0.00 | 35 | 1010.3 |
| 20260831231613 | 76 | 224 | 4.0 | 6.0 | 0.00 | 0.00 | 0.00 | 34 | 1010.2 |
| 20260831231108 | 76 | 160 | 1.0 | 1.0 | 0.00 | 0.00 | 0.00 | 35 | 1010.3 |
| 20260831230604 | 76 | 252 | 7.0 | 7.0 | 0.00 | 0.00 | 0.00 | 35 | 1010.3 |
| 20260831230103 | 75 | 174 | 3.0 | 3.0 | 0.00 | 0.00 | 0.00 | 35 | 1010.2 |
| 20260831225558 | 75 | 199 | 3.0 | 3.0 | 0.00 | 0.00 | 0.00 | 35 | 1010.3 |
| 20260831225053 | 75 | 118 | 2.0 | 2.0 | 0.00 | 0.00 | 0.00 | 35 | 1010.2 |
| 20260831224548 | 75 | 206 | 3.0 | 5.0 | 0.00 | 0.00 | 0.00 | 36 | 1010.7 |
| 20260831224043 | 75 | 132 | 0.0 | 1.0 | 0.00 | 0.00 | 0.00 | 37 | 1010.2 |
| 20260831223539 | 75 | 247 | 3.0 | 3.0 | 0.00 | 0.00 | 0.00 | 35 | 1010.4 |
| 20260831223035 | 75 | 202 | 5.0 | 7.0 | 0.00 | 0.00 | 0.00 | 36 | 1010.4 |
| 20260831222531 | 75 | 178 | 3.0 | 5.0 | 0.00 | 0.00 | 0.00 | 37 | 1010.5 |
| 20260831222030 | 75 | 225 | 3.0 | 3.0 | 0.00 | 0.00 | 0.00 | 36 | 1010.5 |
| 20260831221526 | 75 | 195 | 3.0 | 6.0 | 0.00 | 0.00 | 0.00 | 37 | 1010.4 |
| 20260831221021 | 75 | 288 | 6.0 | 8.0 | 0.00 | 0.00 | 0.00 | 36 | 1010.6 |
| 20260831220517 | 74 | 136 | 1.0 | 2.0 | 0.00 | 0.00 | 0.00 | 37 | 1010.6 |
| 20260831220012 | 74 | 181 | 1.0 | 1.0 | 0.00 | 0.00 | 0.00 | 36 | 1010.4 |
| 20260831215507 | 75 | 177 | 2.0 | 2.0 | 0.00 | 0.00 | 0.00 | 37 | 1010.6 |
| 20260831215003 | 74 | 146 | 0.0 | 0.0 | 0.00 | 0.00 | 0.00 | 37 | 1010.6 |
| 20260831214501 | 74 | 179 | 3.0 | 3.0 | 0.00 | 0.00 | 0.00 | 37 | 1010.8 |
| 20260831213956 | 74 | 174 | 3.0 | 3.0 | 0.00 | 0.00 | 0.00 | 38 | 1010.7 |
| 20260831213453 | 74 | 169 | 4.0 | 5.0 | 0.00 | 0.00 | 0.00 | 38 | 1010.7 |
| 20260831212952 | 74 | 177 | 7.0 | 8.0 | 0.00 | 0.00 | 0.00 | 37 | 1011.0 |
| 20260831212448 | 74 | 146 | 1.0 | 2.0 | 0.00 | 0.00 | 0.00 | 39 | 1010.8 |
| 20260831211943 | 74 | 214 | 3.0 | 5.0 | 0.00 | 0.00 | 0.00 | 39 | 1010.8 |
| 20260831211438 | 73 | 195 | 3.0 | 3.0 | 0.00 | 0.00 | 0.00 | 40 | 1010.5 |
| 20260831210937 | 73 | 190 | 4.0 | 6.0 | 0.00 | 0.00 | 0.00 | 39 | 1010.8 |
| 20260831210433 | 73 | 171 | 5.0 | 6.0 | 0.00 | 0.00 | 0.00 | 38 | 1010.6 |
| 20260831205928 | 73 | 177 | 4.0 | 6.0 | 0.00 | 0.00 | 0.00 | 39 | 1010.8 |
| 20260831205424 | 73 | 222 | 4.0 | 6.0 | 0.00 | 0.00 | 0.00 | 38 | 1010.8 |
| 20260831204919 | 73 | 273 | 5.0 | 6.0 | 0.00 | 0.00 | 0.00 | 40 | 1011.0 |
| 20260831204418 | 73 | 211 | 4.0 | 5.0 | 0.00 | 0.00 | 0.00 | 39 | 1010.7 |
| 20260831203917 | 73 | 159 | 1.0 | 2.0 | 0.00 | 0.00 | 0.00 | 40 | 1011.0 |
| 20260831203412 | 73 | 188 | 3.0 | 3.0 | 0.00 | 0.00 | 0.00 | 40 | 1011.0 |
| 20260831202910 | 72 | 208 | 3.0 | 3.0 | 0.00 | 0.00 | 0.00 | 41 | 1011.0 |
| 20260831202406 | 72 | 166 | 2.0 | 2.0 | 0.00 | 0.00 | 0.00 | 42 | 1010.8 |
| 20260831201900 | 72 | 174 | 3.0 | 3.0 | 0.00 | 0.00 | 0.00 | 42 | 1011.2 |
| 20260831201359 | 72 | 222 | 6.0 | 7.0 | 0.00 | 0.00 | 0.00 | 41 | 1011.3 |
| 20260831200855 | 72 | 269 | 10.0 | 11.0 | 0.00 | 0.00 | 0.00 | 41 | 1011.2 |
| 20260831200350 | 72 | 209 | 5.0 | 6.0 | 0.00 | 0.00 | 0.00 | 41 | 1011.2 |
| 20260831195844 | 71 | 165 | 3.0 | 3.0 | 0.00 | 0.00 | 0.00 | 42 | 1011.3 |
| 20260831195340 | 72 | 236 | 5.0 | 6.0 | 0.00 | 0.00 | 0.00 | 43 | 1011.1 |
| 20260831194836 | 72 | 307 | 5.0 | 6.0 | 0.00 | 0.00 | 0.00 | 41 | 1011.1 |
| 20260831194331 | 72 | 126 | 4.0 | 5.0 | 0.00 | 0.00 | 0.00 | 43 | 1011.2 |
| 20260831193830 | 72 | 311 | 7.0 | 9.0 | 0.00 | 0.00 | 0.00 | 42 | 1011.2 |
| 20260831193325 | 71 | 138 | 1.0 | 1.0 | 0.00 | 0.00 | 0.00 | 42 | 1011.1 |
| 20260831192821 | 70 | 144 | 1.0 | 1.0 | 0.00 | 0.00 | 0.00 | 44 | 1011.3 |
| 20260831192321 | 71 | 239 | 5.0 | 7.0 | 0.00 | 0.00 | 0.00 | 42 | 1011.4 |
| 20260831191817 | 72 | 306 | 8.0 | 9.0 | 0.00 | 0.00 | 0.00 | 41 | 1011.5 |
| 20260831191313 | 71 | 271 | 4.0 | 5.0 | 0.00 | 0.00 | 0.00 | 43 | 1011.6 |
| 20260831190808 | 71 | 292 | 8.0 | 9.0 | 0.00 | 0.00 | 0.00 | 44 | 1011.6 |
| 20260831190307 | 71 | 244 | 7.0 | 9.0 | 0.00 | 0.00 | 0.00 | 42 | 1011.7 |
| 20260831185802 | 71 | 252 | 5.0 | 6.0 | 0.00 | 0.00 | 0.00 | 42 | 1011.7 |
| 20260831185258 | 70 | 227 | 5.0 | 7.0 | 0.00 | 0.00 | 0.00 | 44 | 1011.9 |
| 20260831184756 | 71 | 291 | 13.0 | 16.0 | 0.00 | 0.00 | 0.00 | 43 | 1011.9 |
| 20260831184252 | 71 | 307 | 8.0 | 9.0 | 0.00 | 0.00 | 0.00 | 42 | 1011.9 |
| 20260831183747 | 71 | 135 | 4.0 | 6.0 | 0.00 | 0.00 | 0.00 | 44 | 1012.2 |
| 20260831183247 | 71 | 126 | 3.0 | 3.0 | 0.00 | 0.00 | 0.00 | 45 | 1012.0 |
| 20260831182746 | 71 | 108 | 0.0 | 1.0 | 0.00 | 0.00 | 0.00 | 43 | 1012.3 |
| 20260831182241 | 71 | 321 | 7.0 | 9.0 | 0.00 | 0.00 | 0.00 | 42 | 1011.9 |
| 20260831181736 | 69 | 136 | 3.0 | 5.0 | 0.00 | 0.00 | 0.00 | 47 | 1012.2 |
| 20260831181232 | 70 | 294 | 10.0 | 11.0 | 0.00 | 0.00 | 0.00 | 45 | 1012.5 |
| 20260831180731 | 70 | 123 | 1.0 | 1.0 | 0.00 | 0.00 | 0.00 | 45 | 1012.3 |
| 20260831180226 | 70 | 281 | 6.0 | 7.0 | 0.00 | 0.00 | 0.00 | 46 | 1012.6 |
| 20260831175725 | 69 | 164 | 3.0 | 3.0 | 0.00 | 0.00 | 0.00 | 47 | 1012.2 |
| 20260831175222 | 71 | 117 | 7.0 | 9.0 | 0.00 | 0.00 | 0.00 | 45 | 1012.4 |
| 20260831174717 | 70 | 118 | 1.0 | 1.0 | 0.00 | 0.00 | 0.00 | 48 | 1012.5 |
| 20260831174213 | 69 | 157 | 2.0 | 3.0 | 0.00 | 0.00 | 0.00 | 45 | 1012.3 |
| 20260831173711 | 71 | 108 | 3.0 | 5.0 | 0.00 | 0.00 | 0.00 | 45 | 1012.5 |
| 20260831173206 | 69 | 137 | 1.0 | 1.0 | 0.00 | 0.00 | 0.00 | 46 | 1012.4 |
| 20260831172701 | 70 | 176 | 3.0 | 3.0 | 0.00 | 0.00 | 0.00 | 47 | 1012.3 |
| 20260831172156 | 69 | 151 | 3.0 | 3.0 | 0.00 | 0.00 | 0.00 | 46 | 1012.3 |
| 20260831171651 | 69 | 313 | 6.0 | 7.0 | 0.00 | 0.00 | 0.00 | 46 | 1012.4 |
| 20260831171148 | 68 | 129 | 1.0 | 2.0 | 0.00 | 0.00 | 0.00 | 47 | 1012.4 |
| 20260831170644 | 68 | 347 | 6.0 | 7.0 | 0.00 | 0.00 | 0.00 | 50 | 1012.3 |
| 20260831170141 | 68 | 316 | 8.0 | 10.0 | 0.00 | 0.00 | 0.00 | 46 | 1012.5 |
| 20260831165637 | 67 | 343 | 5.0 | 11.0 | 0.00 | 0.00 | 0.00 | 49 | 1012.4 |
| 20260831165133 | 67 | 263 | 2.0 | 2.0 | 0.00 | 0.00 | 0.00 | 51 | 1012.3 |
| 20260831164629 | 66 | 14 | 7.0 | 10.0 | 0.00 | 0.00 | 0.00 | 50 | 1012.4 |
| 20260831164124 | 67 | 296 | 11.0 | 14.0 | 0.00 | 0.00 | 0.00 | 49 | 1012.5 |
| 20260831163620 | 66 | 20 | 2.0 | 3.0 | 0.00 | 0.00 | 0.00 | 48 | 1012.3 |
| 20260831163115 | 66 | 332 | 9.0 | 14.0 | 0.00 | 0.00 | 0.00 | 49 | 1012.5 |
| 20260831162614 | 66 | 305 | 8.0 | 10.0 | 0.00 | 0.00 | 0.00 | 49 | 1012.4 |
| 20260831162112 | 66 | 44 | 6.0 | 9.0 | 0.00 | 0.00 | 0.00 | 50 | 1012.4 |
| 20260831161608 | 64 | 302 | 5.0 | 7.0 | 0.00 | 0.00 | 0.00 | 51 | 1012.3 |
| 20260831161104 | 64 | 297 | 9.0 | 16.0 | 0.00 | 0.00 | 0.00 | 52 | 1012.2 |
| 20260831160603 | 64 | 319 | 9.0 | 15.0 | 0.00 | 0.00 | 0.00 | 52 | 1012.5 |
| 20260831160059 | 64 | 286 | 8.0 | 11.0 | 0.00 | 0.00 | 0.00 | 52 | 1012.3 |
| 20260831155553 | 64 | 313 | 12.0 | 17.0 | 0.00 | 0.00 | 0.00 | 51 | 1012.4 |
| 20260831155049 | 64 | 325 | 13.0 | 17.0 | 0.00 | 0.00 | 0.00 | 50 | 1012.0 |
| 20260831154545 | 64 | 359 | 7.0 | 9.0 | 0.00 | 0.00 | 0.00 | 51 | 1012.3 |
| 20260831154044 | 63 | 283 | 10.0 | 13.0 | 0.00 | 0.00 | 0.00 | 51 | 1012.0 |
| 20260831153544 | 63 | 302 | 11.0 | 14.0 | 0.00 | 0.00 | 0.00 | 52 | 1012.3 |
| 20260831153041 | 62 | 352 | 9.0 | 11.0 | 0.00 | 0.00 | 0.00 | 53 | 1012.2 |
| 20260831152536 | 62 | 310 | 11.0 | 13.0 | 0.00 | 0.00 | 0.00 | 53 | 1012.4 |
| 20260831152032 | 61 | 300 | 13.0 | 16.0 | 0.00 | 0.00 | 0.00 | 53 | 1012.2 |
| 20260831151531 | 61 | 318 | 11.0 | 14.0 | 0.00 | 0.00 | 0.00 | 54 | 1012.3 |
| 20260831151031 | 60 | 306 | 8.0 | 8.0 | 0.00 | 0.00 | 0.00 | 55 | 1012.4 |
| 20260831150526 | 60 | 288 | 9.0 | 10.0 | 0.00 | 0.00 | 0.00 | 56 | 1012.3 |
| 20260831150022 | 59 | 284 | 9.0 | 11.0 | 0.00 | 0.00 | 0.00 | 56 | 1012.2 |
| 20260831145516 | 59 | 307 | 8.0 | 13.0 | 0.00 | 0.00 | 0.00 | 59 | 1012.2 |
| 20260831145013 | 58 | 298 | 7.0 | 8.0 | 0.00 | 0.00 | 0.00 | 59 | 1012.0 |
| 20260831144508 | 58 | 316 | 7.0 | 8.0 | 0.00 | 0.00 | 0.00 | 60 | 1012.2 |
| 20260831144003 | 57 | 293 | 6.0 | 8.0 | 0.00 | 0.00 | 0.00 | 61 | 1011.9 |
| 20260831143458 | 57 | 311 | 7.0 | 9.0 | 0.00 | 0.00 | 0.00 | 62 | 1012.0 |
| 20260831142953 | 56 | 280 | 9.0 | 11.0 | 0.00 | 0.00 | 0.00 | 62 | 1011.8 |
| 20260831142450 | 56 | 277 | 5.0 | 6.0 | 0.00 | 0.00 | 0.00 | 64 | 1011.8 |
| 20260831141944 | 55 | 277 | 7.0 | 8.0 | 0.00 | 0.00 | 0.00 | 66 | 1011.6 |
| 20260831141438 | 55 | 275 | 6.0 | 7.0 | 0.00 | 0.00 | 0.00 | 67 | 1011.7 |
| 20260831140933 | 54 | 278 | 9.0 | 11.0 | 0.00 | 0.00 | 0.00 | 67 | 1011.6 |
| 20260831140427 | 53 | 294 | 6.0 | 7.0 | 0.00 | 0.00 | 0.00 | 69 | 1011.4 |
| 20260831135926 | 53 | 319 | 5.0 | 6.0 | 0.00 | 0.00 | 0.00 | 69 | 1011.7 |
| 20260831135425 | 53 | 279 | 6.0 | 7.0 | 0.00 | 0.00 | 0.00 | 69 | 1011.4 |
| 20260831134920 | 53 | 298 | 8.0 | 9.0 | 0.00 | 0.00 | 0.00 | 70 | 1011.5 |
| 20260831134417 | 53 | 264 | 7.0 | 8.0 | 0.00 | 0.00 | 0.00 | 69 | 1011.4 |
| 20260831133916 | 52 | 324 | 7.0 | 9.0 | 0.00 | 0.00 | 0.00 | 71 | 1011.4 |
| 20260831133411 | 51 | 324 | 6.0 | 8.0 | 0.00 | 0.00 | 0.00 | 72 | 1011.5 |
| 20260831132906 | 51 | 308 | 9.0 | 10.0 | 0.00 | 0.00 | 0.00 | 74 | 1011.5 |
| 20260831132402 | 50 | 288 | 4.0 | 7.0 | 0.00 | 0.00 | 0.00 | 76 | 1011.4 |
| 20260831131901 | 50 | 300 | 5.0 | 7.0 | 0.00 | 0.00 | 0.00 | 77 | 1011.4 |
| 20260831131357 | 49 | 330 | 5.0 | 6.0 | 0.00 | 0.00 | 0.00 | 77 | 1011.1 |
| 20260831130852 | 49 | 302 | 6.0 | 7.0 | 0.00 | 0.00 | 0.00 | 77 | 1011.1 |
| 20260831130348 | 49 | 328 | 7.0 | 9.0 | 0.00 | 0.00 | 0.00 | 78 | 1011.0 |
| 20260831125847 | 48 | 317 | 6.0 | 7.0 | 0.00 | 0.00 | 0.00 | 78 | 1010.8 |
| 20260831125342 | 47 | 297 | 4.0 | 5.0 | 0.00 | 0.00 | 0.00 | 80 | 1011.1 |
| 20260831124837 | 45 | 173 | 2.0 | 2.0 | 0.00 | 0.00 | 0.00 | 86 | 1010.7 |
| 20260831124333 | 45 | 125 | 0.0 | 0.0 | 0.00 | 0.00 | 0.00 | 84 | 1010.6 |
| 20260831123832 | 46 | 38 | 2.0 | 3.0 | 0.00 | 0.00 | 0.00 | 83 | 1010.7 |
| 20260831123326 | 47 | 77 | 1.0 | 1.0 | 0.00 | 0.00 | 0.00 | 81 | 1010.8 |
| 20260831122821 | 45 | 198 | 3.0 | 3.0 | 0.00 | 0.00 | 0.00 | 85 | 1010.5 |
| 20260831122317 | 44 | 132 | 0.0 | 0.0 | 0.00 | 0.00 | 0.00 | 86 | 1010.2 |
| 20260831121816 | 45 | 114 | 1.0 | 1.0 | 0.00 | 0.00 | 0.00 | 85 | 1010.4 |
| 20260831121313 | 45 | 171 | 1.0 | 2.0 | 0.00 | 0.00 | 0.00 | 85 | 1010.4 |
| 20260831120808 | 46 | 213 | 3.0 | 3.0 | 0.00 | 0.00 | 0.00 | 84 | 1010.6 |
| 20260831120302 | 46 | 205 | 2.0 | 2.0 | 0.00 | 0.00 | 0.00 | 84 | 1010.4 |
| 20260831115757 | 46 | 188 | 3.0 | 3.0 | 0.00 | 0.00 | 0.00 | 84 | 1010.3 |
| 20260831115254 | 46 | 194 | 3.0 | 3.0 | 0.00 | 0.00 | 0.00 | 84 | 1010.4 |
| 20260831114753 | 46 | 269 | 5.0 | 6.0 | 0.00 | 0.00 | 0.00 | 82 | 1010.0 |
| 20260831114253 | 46 | 262 | 5.0 | 6.0 | 0.00 | 0.00 | 0.00 | 82 | 1010.5 |
| 20260831113748 | 46 | 272 | 5.0 | 6.0 | 0.00 | 0.00 | 0.00 | 82 | 1010.3 |
| 20260831113242 | 46 | 260 | 5.0 | 6.0 | 0.00 | 0.00 | 0.00 | 82 | 1010.3 |
| 20260831112742 | 46 | 232 | 3.0 | 3.0 | 0.00 | 0.00 | 0.00 | 83 | 1010.4 |
| 20260831112237 | 46 | 124 | 1.0 | 2.0 | 0.00 | 0.00 | 0.00 | 82 | 1010.4 |
| 20260831111733 | 46 | 313 | 3.0 | 3.0 | 0.00 | 0.00 | 0.00 | 82 | 1010.3 |
| 20260831111229 | 47 | 198 | 3.0 | 3.0 | 0.00 | 0.00 | 0.00 | 81 | 1010.2 |
| 20260831110724 | 48 | 318 | 3.0 | 3.0 | 0.00 | 0.00 | 0.00 | 79 | 1010.3 |
| 20260831110220 | 48 | 291 | 5.0 | 6.0 | 0.00 | 0.00 | 0.00 | 78 | 1010.4 |
| 20260831105718 | 48 | 273 | 4.0 | 5.0 | 0.00 | 0.00 | 0.00 | 78 | 1010.2 |
| 20260831105214 | 49 | 313 | 7.0 | 8.0 | 0.00 | 0.00 | 0.00 | 77 | 1010.2 |
| 20260831104708 | 48 | 314 | 7.0 | 8.0 | 0.00 | 0.00 | 0.00 | 78 | 1010.0 |
| 20260831104205 | 48 | 284 | 6.0 | 7.0 | 0.00 | 0.00 | 0.00 | 77 | 1009.9 |
| 20260831103705 | 48 | 286 | 6.0 | 7.0 | 0.00 | 0.00 | 0.00 | 78 | 1010.0 |
| 20260831103201 | 47 | 312 | 5.0 | 6.0 | 0.00 | 0.00 | 0.00 | 80 | 1009.9 |
| 20260831102700 | 46 | 134 | 1.0 | 2.0 | 0.00 | 0.00 | 0.00 | 83 | 1009.9 |
| 20260831102155 | 45 | 114 | 0.0 | 0.0 | 0.00 | 0.00 | 0.00 | 83 | 1009.8 |
| 20260831101650 | 46 | 129 | 0.0 | 0.0 | 0.00 | 0.00 | 0.00 | 82 | 1009.9 |
| 20260831101146 | 46 | 127 | 0.0 | 1.0 | 0.00 | 0.00 | 0.00 | 80 | 1009.5 |
| 20260831100642 | 47 | 126 | 0.0 | 0.0 | 0.00 | 0.00 | 0.00 | 79 | 1009.5 |
| 20260831100138 | 48 | 126 | 0.0 | 0.0 | 0.00 | 0.00 | 0.00 | 78 | 1009.6 |
| 20260831095636 | 49 | 82 | 2.0 | 2.0 | 0.00 | 0.00 | 0.00 | 76 | 1009.9 |
| 20260831095131 | 50 | 123 | 0.0 | 0.0 | 0.00 | 0.00 | 0.00 | 74 | 1009.9 |
| 20260831094626 | 51 | 163 | 1.0 | 2.0 | 0.00 | 0.00 | 0.00 | 73 | 1009.5 |
| 20260831094123 | 51 | 260 | 2.0 | 3.0 | 0.00 | 0.00 | 0.00 | 71 | 1009.5 |
| 20260831093618 | 51 | 217 | 4.0 | 6.0 | 0.00 | 0.00 | 0.00 | 71 | 1009.4 |
| 20260831093114 | 51 | 264 | 6.0 | 7.0 | 0.00 | 0.00 | 0.00 | 71 | 1009.2 |
| 20260831092610 | 50 | 271 | 7.0 | 8.0 | 0.00 | 0.00 | 0.00 | 72 | 1009.2 |
| 20260831092105 | 48 | 267 | 4.0 | 5.0 | 0.00 | 0.00 | 0.00 | 75 | 1009.3 |
| 20260831091605 | 47 | 128 | 0.0 | 0.0 | 0.00 | 0.00 | 0.00 | 80 | 1009.4 |
| 20260831091100 | 48 | 128 | 0.0 | 0.0 | 0.00 | 0.00 | 0.00 | 80 | 1009.5 |
| 20260831090555 | 48 | 123 | 0.0 | 0.0 | 0.00 | 0.00 | 0.00 | 79 | 1009.4 |
| 20260831090052 | 48 | 82 | 2.0 | 2.0 | 0.00 | 0.00 | 0.00 | 80 | 1009.3 |
| 20260831085547 | 48 | 114 | 1.0 | 1.0 | 0.00 | 0.00 | 0.00 | 80 | 1009.3 |
| 20260831085042 | 48 | 111 | 1.0 | 1.0 | 0.00 | 0.00 | 0.00 | 80 | 1009.0 |
| 20260831084538 | 48 | 127 | 1.0 | 1.0 | 0.00 | 0.00 | 0.00 | 80 | 1009.0 |
| 20260831084034 | 49 | 136 | 0.0 | 0.0 | 0.00 | 0.00 | 0.00 | 78 | 1009.1 |
| 20260831083530 | 49 | 127 | 0.0 | 0.0 | 0.00 | 0.00 | 0.00 | 76 | 1009.2 |
| 20260831083024 | 50 | 128 | 0.0 | 0.0 | 0.00 | 0.00 | 0.00 | 75 | 1009.2 |
| 20260831082523 | 50 | 130 | 0.0 | 1.0 | 0.00 | 0.00 | 0.00 | 76 | 1009.0 |
| 20260831082019 | 50 | 136 | 0.0 | 0.0 | 0.00 | 0.00 | 0.00 | 75 | 1008.8 |
| 20260831081514 | 50 | 158 | 1.0 | 2.0 | 0.00 | 0.00 | 0.00 | 75 | 1009.0 |
| 20260831081010 | 50 | 215 | 3.0 | 3.0 | 0.00 | 0.00 | 0.00 | 77 | 1008.9 |
| 20260831080504 | 49 | 234 | 3.0 | 5.0 | 0.00 | 0.00 | 0.00 | 80 | 1008.7 |
| 20260831080000 | 49 | 246 | 5.0 | 6.0 | 0.00 | 0.00 | 0.00 | 80 | 1008.7 |
| 20260831075455 | 49 | 249 | 4.0 | 5.0 | 0.00 | 0.00 | 0.00 | 81 | 1008.7 |
| 20260831074951 | 49 | 230 | 3.0 | 3.0 | 0.00 | 0.00 | 0.00 | 79 | 1008.6 |
| 20260831074450 | 49 | 169 | 2.0 | 2.0 | 0.00 | 0.00 | 0.00 | 77 | 1008.7 |
| 20260831073945 | 49 | 203 | 3.0 | 3.0 | 0.00 | 0.00 | 0.00 | 77 | 1008.7 |
| 20260831073444 | 50 | 164 | 2.0 | 2.0 | 0.00 | 0.00 | 0.00 | 76 | 1008.7 |
| 20260831072944 | 50 | 236 | 4.0 | 5.0 | 0.00 | 0.00 | 0.00 | 75 | 1008.6 |
| 20260831072440 | 50 | 227 | 4.0 | 5.0 | 0.00 | 0.00 | 0.00 | 74 | 1008.8 |
| 20260831071937 | 50 | 249 | 5.0 | 6.0 | 0.00 | 0.00 | 0.00 | 74 | 1008.6 |
| 20260831071435 | 50 | 253 | 4.0 | 5.0 | 0.00 | 0.00 | 0.00 | 74 | 1008.7 |
| 20260831070930 | 51 | 234 | 5.0 | 6.0 | 0.00 | 0.00 | 0.00 | 74 | 1008.6 |
| 20260831070430 | 51 | 262 | 5.0 | 6.0 | 0.00 | 0.00 | 0.00 | 73 | 1008.7 |
| 20260831065929 | 52 | 260 | 7.0 | 7.0 | 0.00 | 0.00 | 0.00 | 71 | 1008.6 |
| 20260831065427 | 52 | 229 | 7.0 | 10.0 | 0.00 | 0.00 | 0.00 | 71 | 1008.4 |
| 20260831064922 | 51 | 246 | 6.0 | 7.0 | 0.00 | 0.00 | 0.00 | 72 | 1008.7 |
| 20260831064417 | 52 | 216 | 4.0 | 5.0 | 0.00 | 0.00 | 0.00 | 72 | 1008.8 |
| 20260831063913 | 53 | 251 | 5.0 | 6.0 | 0.00 | 0.00 | 0.00 | 70 | 1008.9 |
| 20260831063408 | 53 | 281 | 5.0 | 6.0 | 0.00 | 0.00 | 0.00 | 68 | 1009.0 |
| 20260831062902 | 53 | 276 | 6.0 | 8.0 | 0.00 | 0.00 | 0.00 | 68 | 1009.0 |
| 20260831062357 | 54 | 247 | 5.0 | 6.0 | 0.00 | 0.00 | 0.00 | 68 | 1009.0 |
| 20260831061855 | 54 | 243 | 5.0 | 7.0 | 0.00 | 0.00 | 0.00 | 66 | 1009.1 |
| 20260831061355 | 54 | 254 | 6.0 | 7.0 | 0.00 | 0.00 | 0.00 | 65 | 1009.1 |
| 20260831060851 | 54 | 275 | 7.0 | 9.0 | 0.00 | 0.00 | 0.00 | 65 | 1009.1 |
| 20260831060346 | 55 | 259 | 7.0 | 9.0 | 0.00 | 0.00 | 0.00 | 66 | 1009.0 |
| 20260831055845 | 55 | 287 | 8.0 | 10.0 | 0.00 | 0.06 | 0.06 | 65 | 1009.1 |
| 20260831055340 | 55 | 223 | 7.0 | 8.0 | 0.00 | 0.06 | 0.06 | 64 | 1009.0 |
| 20260831054836 | 55 | 249 | 7.0 | 8.0 | 0.00 | 0.06 | 0.06 | 64 | 1008.8 |
| 20260831054331 | 56 | 286 | 8.0 | 9.0 | 0.00 | 0.06 | 0.06 | 63 | 1008.9 |
| 20260831053830 | 56 | 284 | 6.0 | 7.0 | 0.00 | 0.06 | 0.06 | 62 | 1009.0 |
| 20260831053328 | 56 | 261 | 8.0 | 9.0 | 0.00 | 0.06 | 0.06 | 61 | 1008.7 |
| 20260831052823 | 56 | 291 | 7.0 | 8.0 | 0.00 | 0.06 | 0.06 | 62 | 1008.9 |
| 20260831052322 | 56 | 238 | 5.0 | 7.0 | 0.00 | 0.06 | 0.06 | 62 | 1008.9 |
| 20260831051821 | 56 | 263 | 7.0 | 8.0 | 0.00 | 0.06 | 0.06 | 61 | 1008.8 |
| 20260831051319 | 56 | 278 | 5.0 | 7.0 | 0.00 | 0.06 | 0.06 | 61 | 1008.8 |
| 20260831050814 | 56 | 281 | 7.0 | 8.0 | 0.00 | 0.06 | 0.06 | 60 | 1008.7 |
| 20260831050313 | 56 | 270 | 8.0 | 9.0 | 0.00 | 0.06 | 0.06 | 59 | 1008.7 |
| 20260831045808 | 57 | 298 | 9.0 | 10.0 | 0.00 | 0.06 | 0.06 | 58 | 1009.1 |
| 20260831045305 | 57 | 295 | 14.0 | 15.0 | 0.00 | 0.06 | 0.06 | 57 | 1009.0 |
| 20260831044757 | 57 | 293 | 11.0 | 14.0 | 0.00 | 0.06 | 0.06 | 57 | 1008.9 |
| 20260831044252 | 58 | 343 | 10.0 | 11.0 | 0.00 | 0.06 | 0.06 | 55 | 1008.7 |